{"data":{"norad_id":68095,"epoch":"2026-05-24T19:58:42.056544Z","epoch_age_seconds":88908,"freshness":"FRESH","line1":"1 68095U 26042AC  26144.83243121  .00016671  00000+0  50353-3 0  9992","line2":"2 68095  53.1591 184.2835 0001227  88.5724 271.5419 15.34394814 13961","mean_motion":15.34394814,"eccentricity":0.0001227,"inclination_deg":53.1591,"raan_deg":184.2835,"arg_perigee_deg":88.5724,"mean_anomaly_deg":271.5419,"bstar":0.00050353,"rev_number":1396,"period_min":93.848075271193,"perigee_km":461.87928114666,"apogee_km":463.55802712418,"semimajor_km":6840.8556541354,"source":"CELESTRAK","updated_at":"2026-05-25T13:38:21.839744Z"}}